TimePST,TemperatureF,Dew PointF,Humidity,Sea Level PressureIn,VisibilityMPH,Wind Direction,Wind SpeedMPH,Gust SpeedMPH,PrecipitationIn,Events,Conditions,WindDirDegrees,DateUTC
12:53 AM,39.0,34.0,82,30.21,10.0,NW,4.6,-,N/A,,Clear,320,2013-02-26 08:53:00
1:53 AM,39.0,34.0,82,30.20,10.0,NW,4.6,-,N/A,,Clear,310,2013-02-26 09:53:00
2:53 AM,37.9,33.1,83,30.19,10.0,NW,4.6,-,N/A,,Clear,310,2013-02-26 10:53:00
3:53 AM,37.0,32.0,82,30.17,10.0,WNW,4.6,-,N/A,,Clear,300,2013-02-26 11:53:00
4:53 AM,37.0,33.1,86,30.16,10.0,Calm,Calm,-,N/A,,Clear,0,2013-02-26 12:53:00
5:53 AM,36.0,33.1,89,30.17,10.0,Calm,Calm,-,N/A,,Clear,0,2013-02-26 13:53:00
6:53 AM,37.0,34.0,89,30.19,10.0,Variable,3.5,-,N/A,,Clear,0,2013-02-26 14:53:00
7:53 AM,42.1,36.0,79,30.19,10.0,Calm,Calm,-,N/A,,Clear,0,2013-02-26 15:53:00
8:53 AM,48.0,39.0,71,30.19,10.0,ENE,3.5,-,N/A,,Clear,70,2013-02-26 16:53:00
9:53 AM,54.0,37.9,55,30.19,10.0,East,6.9,-,N/A,,Clear,90,2013-02-26 17:53:00
10:53 AM,57.9,36.0,44,30.19,10.0,Calm,Calm,-,N/A,,Clear,0,2013-02-26 18:53:00
11:53 AM,61.0,37.9,42,30.17,10.0,Calm,Calm,-,N/A,,Clear,0,2013-02-26 19:53:00
12:53 PM,62.1,37.0,39,30.16,10.0,South,5.8,-,N/A,,Clear,180,2013-02-26 20:53:00
1:53 PM,64.9,32.0,29,30.14,10.0,South,5.8,-,N/A,,Clear,180,2013-02-26 21:53:00
2:53 PM,62.1,36.0,38,30.13,10.0,SSW,6.9,-,N/A,,Clear,200,2013-02-26 22:53:00
3:53 PM,63.0,34.0,34,30.12,10.0,South,5.8,-,N/A,,Clear,180,2013-02-26 23:53:00
4:53 PM,60.1,32.0,35,30.13,10.0,South,6.9,-,N/A,,Clear,190,2013-02-27 00:53:00
5:53 PM,55.0,43.0,64,30.14,10.0,East,3.5,-,N/A,,Clear,90,2013-02-27 01:53:00
6:53 PM,53.1,43.0,69,30.16,10.0,Calm,Calm,-,N/A,,Clear,0,2013-02-27 02:53:00
7:53 PM,46.0,42.1,86,30.18,10.0,SSW,4.6,-,N/A,,Clear,200,2013-02-27 03:53:00
8:53 PM,46.9,41.0,80,30.20,10.0,Calm,Calm,-,N/A,,Clear,0,2013-02-27 04:53:00
9:53 PM,46.0,36.0,68,30.21,10.0,Calm,Calm,-,N/A,,Clear,0,2013-02-27 05:53:00
10:53 PM,43.0,34.0,71,30.22,10.0,North,3.5,-,N/A,,Clear,350,2013-02-27 06:53:00
11:53 PM,42.1,33.1,70,30.22,10.0,NW,5.8,-,N/A,,Clear,320,2013-02-27 07:53:00